Location: Alpine Heights
(32.8181°N, 116.7809°W)
Time: 23:51:58
(UTC+00:00)

CZ-4B R/B - Pass Details

Date: 14 April 2021
Orbit: 497 x 645 km, 97.8° (Epoch: 15 May)

Event Time Altitude Azimuth Distance (km) Brightness Sun altitude
Rises 12:49:07 0° 8° (N) 2,804 7.8 -6.8°
Reaches altitude 10° 12:51:15 10° 6° (N) 1,924 6.9 -6.3°
Maximum altitude 12:55:24 67° 284° (WNW) 662 4.0 -5.5°
Drops below altitude 10° 12:59:42 10° 202° (SSW) 1,990 6.3 -4.6°
Sets 13:01:56 0° 199° (SSW) 2,909 7.2 -4.2°
